Location: *
(28.3744°N, 81.5492°W)
Time: 02:49:16
(UTC+00:00)

ADEOS - Pass Details

Date: 15 June 2025
Orbit: 789 x 792 km, 98.9° (Epoch: 11 July)

Event Time Altitude Azimuth Distance (km) Brightness Sun altitude
Exits shadow 01:09:00 - 153° (SSE) 2,596 5.7 -9.3°
Reaches altitude 10° 01:09:38 10° 152° (SSE) 2,347 5.5 -9.4°
Maximum altitude 01:14:42 57° 74° (ENE) 925 3.7 -10.3°
Drops below altitude 10° 01:19:47 10° 357° (N) 2,357 6.6 -11.2°
Sets 01:22:09 0° 353° (N) 3,288 7.4 -11.7°
